�������l�o���
Date,Time,MP-1(��Sv/h),MP-2(��Sv/h),MP-3(��Sv/h),MP-4(��Sv/h),MP-5(��Sv/h),MP-6(��Sv/h),MP-7(��Sv/h),MP-8(��Sv/h),����,����(m/s),���J
2016/06/20,00:00,1.312,-,2.501,2.279,2.101,0.644,1.211,1.047,��,9.5,��
2016/06/20,00:10,1.315,-,2.502,2.279,2.103,0.646,1.210,1.046,��,11.0,��
2016/06/20,00:20,1.315,-,2.500,2.279,2.098,0.646,1.209,1.048,��,10.3,��
2016/06/20,00:30,1.316,-,2.503,2.279,2.102,0.646,1.209,1.046,��,9.5,��
2016/06/20,00:40,1.317,-,2.500,2.279,2.105,0.644,1.211,1.047,��,8.8,��
2016/06/20,00:50,1.317,-,2.501,2.281,2.104,0.645,1.212,1.047,��,8.2,��
2016/06/20,01:00,1.318,-,2.498,2.279,2.104,0.647,1.211,1.045,��,7.7,��
2016/06/20,01:10,1.315,-,2.502,2.279,2.106,0.647,1.211,1.047,��,8.4,��
2016/06/20,01:20,1.316,-,2.502,2.276,2.106,0.645,1.209,1.047,��,7.8,��
2016/06/20,01:30,1.316,-,2.503,2.283,2.108,0.645,1.212,1.045,��,7.0,��
2016/06/20,01:40,1.318,-,2.500,2.279,2.100,0.643,1.211,1.045,��,7.4,��
2016/06/20,01:50,1.316,-,2.498,2.279,2.102,0.644,1.210,1.045,��,6.0,��
2016/06/20,02:00,1.316,-,2.503,2.282,2.105,0.645,1.208,1.045,��,6.5,�L
2016/06/20,02:10,1.315,-,2.501,2.276,2.100,0.644,1.210,1.046,��,7.9,�L
2016/06/20,02:20,1.316,-,2.496,2.281,2.102,0.644,1.209,1.048,��,8.7,�L
2016/06/20,02:30,1.314,-,2.489,2.277,2.095,0.645,1.210,1.049,��,9.6,�L
2016/06/20,02:40,1.313,-,2.475,2.274,2.087,0.643,1.207,1.046,��,11.3,�L
2016/06/20,02:50,1.309,-,2.465,2.263,2.072,0.644,1.204,1.042,��쐼,8.9,�L
2016/06/20,03:00,1.295,-,2.435,2.251,2.049,0.641,1.204,1.042,��쐼,7.3,�L
2016/06/20,03:10,1.289,-,2.420,2.246,2.036,0.640,1.201,1.040,��쐼,7.4,�L
2016/06/20,03:20,1.285,-,2.412,2.237,2.028,0.639,1.200,1.037,��,9.4,�L
2016/06/20,03:30,1.280,-,2.398,2.224,2.024,0.639,1.199,1.036,��쐼,9.4,�L
2016/06/20,03:40,1.283,-,2.398,2.221,2.012,0.638,1.198,1.036,��쐼,8.7,�L
2016/06/20,03:50,1.277,-,2.389,2.215,2.010,0.636,1.195,1.036,��쐼,9.0,�L
2016/06/20,04:00,1.276,-,2.393,2.213,2.013,0.636,1.195,1.035,��쐼,7.4,��
2016/06/20,04:10,1.278,-,2.397,2.210,2.013,0.635,1.196,1.036,��쐼,4.9,��
2016/06/20,04:20,1.277,-,2.395,2.213,2.015,0.636,1.195,1.033,�쐼,4.6,��
2016/06/20,04:30,1.277,-,2.393,2.217,2.015,0.634,1.194,1.034,��쐼,4.5,��
2016/06/20,04:40,1.280,-,2.396,2.215,2.016,0.636,1.192,1.034,�쐼,3.3,��
2016/06/20,04:50,1.279,-,2.395,2.216,2.019,0.637,1.192,1.034,���쐼,2.9,��
2016/06/20,05:00,1.282,-,2.395,2.212,2.019,0.636,1.195,1.034,���k��,5.0,�L
2016/06/20,05:10,1.279,-,2.388,2.212,2.011,0.636,1.185,1.030,�k�k��,2.3,�L
2016/06/20,05:20,1.273,-,2.375,2.204,1.995,0.630,1.176,1.021,�k�k��,0.9,�L
2016/06/20,05:30,1.263,-,2.350,2.185,1.978,0.626,1.176,1.020,��,6.1,�L
2016/06/20,05:40,1.264,-,2.365,2.185,1.984,0.627,1.173,1.020,���쓌,4.1,�L
2016/06/20,05:50,1.262,-,2.369,2.188,1.988,0.629,1.177,1.022,��쓌,4.8,��
2016/06/20,06:00,1.266,-,2.369,2.190,1.994,0.628,1.179,1.022,��,4.7,��
2016/06/20,06:10,1.266,-,2.372,2.189,1.999,0.628,1.180,1.023,��쐼,3.5,��
2016/06/20,06:20,1.270,-,2.374,2.192,1.996,0.628,1.180,1.022,�쐼,2.5,��
2016/06/20,06:30,1.271,-,2.374,2.193,1.999,0.628,1.180,1.025,�쐼,1.7,��
2016/06/20,06:40,1.274,-,2.373,2.194,2.000,0.630,1.182,1.025,��쐼,0.8,��
2016/06/20,06:50,1.272,-,2.378,2.194,2.001,0.630,1.183,1.024,��쐼,1.2,��
2016/06/20,07:00,1.271,-,2.374,2.197,2.004,0.632,1.181,1.026,���쓌,0.6,��
2016/06/20,07:10,1.273,-,2.380,2.197,2.006,0.630,1.182,1.027,��쓌,2.0,��
2016/06/20,07:20,1.275,-,2.371,2.197,2.007,0.630,1.182,1.024,��쓌,2.6,��
2016/06/20,07:30,1.275,-,2.382,2.199,2.005,0.631,1.182,1.029,��쓌,2.6,��
2016/06/20,07:40,1.274,-,2.383,2.199,2.007,0.631,1.185,1.026,��쓌,2.9,��
2016/06/20,07:50,1.277,-,2.389,2.200,2.012,0.631,1.183,1.025,��쓌,4.1,��
2016/06/20,08:00,1.277,-,2.386,2.205,2.016,0.631,1.184,1.026,��쓌,3.9,��
2016/06/20,08:10,1.279,-,2.384,2.207,2.015,0.629,1.187,1.025,��쓌,2.6,��
2016/06/20,08:20,1.279,-,2.382,2.204,2.017,0.633,1.186,1.026,��쓌,2.9,��
2016/06/20,08:30,1.277,-,2.386,2.206,2.013,0.632,1.187,1.026,�쓌,2.2,��
2016/06/20,08:40,1.280,-,2.389,2.204,2.013,0.633,1.188,1.027,�쓌,2.6,��
2016/06/20,08:50,1.279,-,2.390,2.206,2.009,0.633,1.188,1.028,���쓌,2.6,��
2016/06/20,09:00,1.277,-,2.388,2.204,1.988,0.631,1.188,1.026,��,2.9,��
2016/06/20,09:10,1.278,-,2.384,2.209,1.995,0.633,1.188,1.028,��,3.6,��
2016/06/20,09:20,1.281,-,2.368,2.206,1.994,0.635,1.186,1.029,��,3.1,��
2016/06/20,09:30,1.279,-,2.374,2.208,1.996,0.634,1.190,1.028,��,2.9,��
2016/06/20,09:40,1.278,-,2.379,2.209,1.998,0.634,1.190,1.028,���k��,2.6,��
2016/06/20,09:50,1.276,-,2.372,2.210,2.000,0.633,1.189,1.029,��,3.1,��
2016/06/20,10:00,1.278,-,2.320,2.210,1.998,0.635,1.190,1.028,���쓌,2.6,��
2016/06/20,10:10,1.277,-,2.301,2.211,2.003,0.634,1.192,1.029,���쓌,2.2,��
2016/06/20,10:20,1.278,-,2.285,2.209,2.003,0.637,1.191,1.027,��,2.0,��
2016/06/20,10:30,1.278,-,2.283,2.211,2.001,0.635,1.192,1.030,���쓌,2.6,��
2016/06/20,10:40,1.277,-,2.293,2.212,1.995,0.634,1.193,1.029,���쓌,2.3,��
2016/06/20,10:50,1.279,-,2.296,2.212,1.993,0.635,1.193,1.030,���쓌,2.0,��
2016/06/20,11:00,1.281,-,2.278,2.215,1.996,0.636,1.195,1.031,���쓌,2.0,��
2016/06/20,11:10,1.280,-,2.221,2.212,1.992,0.637,1.193,1.029,���쓌,1.4,��
2016/06/20,11:20,1.281,-,2.255,2.215,1.997,0.639,1.196,1.031,���쓌,1.7,��
2016/06/20,11:30,1.283,-,2.293,2.214,2.001,0.637,1.193,1.030,�k��,1.9,��
2016/06/20,11:40,1.286,-,2.296,2.214,2.008,0.636,1.194,1.030,�k��,3.4,��
2016/06/20,11:50,1.283,-,2.296,2.217,2.004,0.637,1.194,1.031,�k��,2.8,��
2016/06/20,12:00,1.284,-,2.301,2.216,2.010,0.637,1.193,1.030,�k�k��,2.0,��
2016/06/20,12:10,1.283,-,2.297,2.215,2.013,0.638,1.194,1.032,�k��,2.2,��
2016/06/20,12:20,1.285,-,2.264,2.221,2.012,0.639,1.194,1.032,���k��,2.3,��
2016/06/20,12:30,1.287,-,2.268,2.218,2.017,0.637,1.196,1.032,�k��,1.1,��
2016/06/20,12:40,1.285,-,2.274,2.220,2.017,0.639,1.195,1.033,���쓌,1.7,��
2016/06/20,12:50,1.287,-,2.275,2.221,2.017,0.638,1.196,1.030,���쓌,3.4,��
2016/06/20,13:00,1.287,-,2.276,2.222,2.015,0.638,1.196,1.033,���쓌,4.6,��
2016/06/20,13:10,1.292,-,2.272,2.224,2.024,0.639,1.196,1.032,���쓌,3.4,��
2016/06/20,13:20,1.288,-,2.298,2.222,2.048,0.639,1.196,1.032,���쓌,3.4,��
2016/06/20,13:30,1.290,-,2.299,2.222,2.047,0.640,1.195,1.034,���쓌,2.6,��
2016/06/20,13:40,1.286,-,2.302,2.219,2.047,0.638,1.196,1.032,�쓌,2.3,��
2016/06/20,13:50,1.290,-,2.298,2.225,2.024,0.639,1.197,1.034,�쓌,3.1,��
2016/06/20,14:00,1.288,-,2.276,2.225,2.013,0.641,1.195,1.033,��쓌,2.5,��
2016/06/20,14:10,1.289,-,2.263,2.226,2.022,0.641,1.198,1.033,��쓌,2.6,��
2016/06/20,14:20,1.288,-,2.268,2.225,2.027,0.641,1.198,1.033,���쓌,1.1,��
2016/06/20,14:30,1.289,-,2.272,2.225,2.027,0.641,1.196,1.034,���k��,1.9,��
2016/06/20,14:40,1.289,-,2.273,2.227,2.028,0.641,1.198,1.035,��,2.3,��
2016/06/20,14:50,1.289,-,2.268,2.228,2.023,0.640,1.197,1.034,�k��,2.2,��
2016/06/20,15:00,1.292,-,2.275,2.230,2.029,0.642,1.198,1.034,���k��,1.5,��
2016/06/20,15:10,1.290,-,2.274,2.230,2.029,0.641,1.197,1.034,�k�k��,0.9,��
2016/06/20,15:20,1.289,-,2.276,2.228,2.028,0.643,1.198,1.033,�k,0.8,��
2016/06/20,15:30,1.291,-,2.275,2.225,2.024,0.642,1.198,1.035,�k�k��,0.9,��
2016/06/20,15:40,1.291,-,2.274,2.230,2.027,0.643,1.196,1.034,�쓌,1.4,��
2016/06/20,15:50,1.291,-,2.276,2.229,2.026,0.641,1.198,1.036,��,0.8,��
2016/06/20,16:00,1.293,-,2.275,2.233,2.024,0.640,1.198,1.034,���k��,1.5,��
2016/06/20,16:10,1.290,-,2.272,2.231,2.029,0.641,1.198,1.036,��,1.1,��
2016/06/20,16:20,1.292,-,2.280,2.228,2.028,0.641,1.198,1.035,�쓌,2.5,��
2016/06/20,16:30,1.290,-,2.275,2.230,2.029,0.642,1.197,1.034,�쓌,3.4,��
2016/06/20,16:40,1.290,-,2.278,2.232,2.027,0.641,1.199,1.034,��쓌,2.6,��
2016/06/20,16:50,1.292,-,2.278,2.228,2.028,0.640,1.198,1.033,��,3.0,��
2016/06/20,17:00,1.295,-,2.280,2.230,2.027,0.640,1.198,1.035,��쐼,0.9,��
2016/06/20,17:10,1.292,-,2.280,2.223,2.028,0.642,1.200,1.033,��,1.2,��
2016/06/20,17:20,1.291,-,2.282,2.233,2.029,0.639,1.198,1.033,��쓌,1.5,��
2016/06/20,17:30,1.289,-,2.283,2.235,2.030,0.641,1.196,1.034,��쓌,2.0,��
2016/06/20,17:40,1.291,-,2.281,2.237,2.026,0.641,1.194,1.036,��쓌,2.9,��
2016/06/20,17:50,1.294,-,2.283,2.233,2.029,0.643,1.196,1.035,��쓌,1.7,��
2016/06/20,18:00,1.292,-,2.283,2.236,2.030,0.642,1.197,1.037,�쓌,2.3,��
2016/06/20,18:10,1.294,-,2.282,2.235,2.033,0.643,1.196,1.037,�쓌,2.0,��
2016/06/20,18:20,1.292,-,2.282,2.236,2.027,0.642,1.197,1.036,�쓌,1.4,��
2016/06/20,18:30,1.295,-,2.281,2.235,2.024,0.641,1.200,1.038,���쓌,0.9,��
2016/06/20,18:40,1.292,-,2.280,2.236,2.030,0.642,1.198,1.039,��쓌,1.1,��
2016/06/20,18:50,1.292,-,2.282,2.233,2.030,0.643,1.199,1.039,�k��,0.6,��
2016/06/20,19:00,1.294,-,2.282,2.233,2.026,0.643,1.200,1.038,�k��,1.4,��
2016/06/20,19:10,1.294,-,2.280,2.232,2.030,0.642,1.199,1.039,���k��,2.3,��
2016/06/20,19:20,1.294,-,2.280,2.234,2.031,0.642,1.199,1.038,�k��,3.3,��
2016/06/20,19:30,1.293,-,2.279,2.237,2.034,0.640,1.199,1.038,�k�k��,2.9,��
2016/06/20,19:40,1.295,-,2.279,2.236,2.028,0.641,1.197,1.037,�k�k��,3.1,��
2016/06/20,19:50,1.296,-,2.281,2.235,2.031,0.642,1.199,1.038,�k�k��,1.7,��
2016/06/20,20:00,1.294,-,2.277,2.236,2.026,0.643,1.199,1.038,�k�k��,3.1,��
2016/06/20,20:10,1.296,-,2.280,2.233,2.029,0.643,1.202,1.038,�k�k��,4.5,��
2016/06/20,20:20,1.293,-,2.280,2.234,2.028,0.643,1.202,1.039,�k��,4.5,��
2016/06/20,20:30,1.295,-,2.280,2.236,2.027,0.642,1.201,1.036,�k��,3.9,��
2016/06/20,20:40,1.297,-,2.281,2.236,2.027,0.644,1.203,1.040,�k��,2.6,��
2016/06/20,20:50,1.295,-,2.278,2.234,2.022,0.642,1.200,1.038,�k�k��,2.2,��
2016/06/20,21:00,1.295,-,2.280,2.238,2.028,0.641,1.200,1.038,�k��,3.3,��
2016/06/20,21:10,1.296,-,2.278,2.236,2.030,0.643,1.200,1.037,�k��,3.4,��
2016/06/20,21:20,1.297,-,2.281,2.232,2.028,0.642,1.200,1.037,�k�k��,2.3,��
2016/06/20,21:30,1.296,-,2.278,2.235,2.026,0.644,1.201,1.036,�k�k��,2.2,��
2016/06/20,21:40,1.296,-,2.277,2.236,2.027,0.641,1.200,1.039,�k��,2.2,��
2016/06/20,21:50,1.295,-,2.280,2.232,2.027,0.644,1.200,1.039,���k��,1.2,��
2016/06/20,22:00,1.295,-,2.280,2.233,2.024,0.643,1.201,1.036,�k��,1.1,��
2016/06/20,22:10,1.295,-,2.280,2.233,2.026,0.643,1.199,1.038,��,1.4,��
2016/06/20,22:20,1.296,-,2.277,2.236,2.031,0.642,1.200,1.038,���k��,1.2,��
2016/06/20,22:30,1.297,-,2.278,2.237,2.028,0.643,1.202,1.036,�쐼,0.9,��
2016/06/20,22:40,1.298,-,2.276,2.235,2.026,0.642,1.200,1.038,��,2.6,��
2016/06/20,22:50,1.299,-,2.278,2.235,2.027,0.643,1.200,1.037,��,2.0,��
2016/06/20,23:00,1.297,-,2.279,2.235,2.028,0.643,1.200,1.038,��,2.9,��
2016/06/20,23:10,1.298,-,2.275,2.237,2.028,0.644,1.200,1.039,���k��,2.3,��
2016/06/20,23:20,1.297,-,2.278,2.235,2.027,0.644,1.199,1.038,�k��,0.9,��
2016/06/20,23:30,1.297,-,2.277,2.234,2.023,0.641,1.200,1.038,�k��,2.3,��
2016/06/20,23:40,1.295,-,2.277,2.234,2.028,0.644,1.199,1.040,���k��,2.0,��
2016/06/20,23:50,1.294,-,2.279,2.234,2.023,0.643,1.200,1.040,��,2.0,��
